FW7539 Weather Reports


Display with metric or nautical units.
time (UTC)temp
F
wind
direction
speed
MPH
gust
MPH
rain 1hr
in
rain 24hr
in
rain mn
in
humidity
%
barometer
mb
20260504150956 64 154 3.0 9.0 0.00 0.00 0.00 64 1010.0
20260504150455 64 163 3.0 8.0 0.00 0.00 0.00 63 1009.9
20260504140956 61 196 3.0 9.0 0.00 0.00 0.00 67 1010.0
20260504140517 61 201 3.0 8.0 0.00 0.00 0.00 67 1009.9
20260504130516 57 168 2.0 11.0 0.00 0.00 0.00 70 1010.5
20260504110456 55 170 2.0 4.0 0.00 0.00 0.00 65 1010.5
20260504100456 54 152 1.0 3.0 0.00 0.00 0.00 65 1010.8
20260504081456 54 153 2.0 7.0 0.00 0.00 0.00 60 1011.4
20260504080956 54 154 2.0 7.0 0.00 0.00 0.00 60 1011.4
20260504080456 55 177 2.0 9.0 0.00 0.00 0.00 60 1011.5
20260504050456 55 151 2.0 8.0 0.00 0.00 0.00 56 1013.5
20260504045956 55 150 1.0 5.0 0.00 0.00 0.00 56 1013.5
20260504045517 55 143 2.0 5.0 0.00 0.00 0.00 57 1013.5
20260504044956 55 144 2.0 5.0 0.00 0.00 0.00 57 1013.5
20260504044517 55 148 2.0 4.0 0.00 0.00 0.00 56 1013.5
20260504044017 55 154 1.0 4.0 0.00 0.00 0.00 57 1013.5
20260504043456 55 157 1.0 4.0 0.00 0.00 0.00 57 1013.6
20260504042956 55 152 2.0 9.0 0.00 0.00 0.00 57 1013.6
20260504042457 55 146 2.0 9.0 0.00 0.00 0.00 58 1013.6
20260504041956 55 140 1.0 6.0 0.00 0.00 0.00 57 1013.7
20260504041517 55 147 2.0 6.0 0.00 0.00 0.00 57 1013.7
20260504041017 55 143 2.0 6.0 0.00 0.00 0.00 57 1013.8
20260504040456 55 142 2.0 6.0 0.00 0.00 0.00 57 1013.9
20260504035957 55 150 1.0 7.0 0.00 0.00 0.00 57 1013.9
20260504035518 55 146 1.0 7.0 0.00 0.00 0.00 58 1014.0
20260504034956 55 144 1.0 5.0 0.00 0.00 0.00 57 1014.0
20260504034456 55 144 1.0 4.0 0.00 0.00 0.00 57 1014.1
20260504034017 55 148 1.0 5.0 0.00 0.00 0.00 58 1014.2
20260504033456 55 146 2.0 5.0 0.00 0.00 0.00 57 1014.2
20260504032956 55 147 1.0 4.0 0.00 0.00 0.00 57 1014.2
20260504032517 55 158 1.0 3.0 0.00 0.00 0.00 57 1014.2
20260504031956 55 165 1.0 4.0 0.00 0.00 0.00 57 1014.2
20260504031456 55 175 1.0 4.0 0.00 0.00 0.00 57 1014.2
20260504030957 55 171 1.0 4.0 0.00 0.00 0.00 56 1014.2
20260504030456 55 151 1.0 3.0 0.00 0.00 0.00 57 1014.3
20260504025956 55 138 1.0 3.0 0.00 0.00 0.00 58 1014.3
20260504025457 55 136 1.0 3.0 0.00 0.00 0.00 56 1014.4
20260504024956 55 136 1.0 3.0 0.00 0.00 0.00 56 1014.3
20260504024517 55 138 0.0 2.0 0.00 0.00 0.00 57 1014.4
20260504023956 55 137 1.0 3.0 0.00 0.00 0.00 57 1014.5
20260504023457 55 129 1.0 3.0 0.00 0.00 0.00 57 1014.5
20260504023018 55 121 1.0 3.0 0.00 0.00 0.00 57 1014.5
20260504022518 55 119 1.0 3.0 0.00 0.00 0.00 56 1014.5
20260504021956 56 126 1.0 6.0 0.00 0.00 0.00 56 1014.5
20260504021456 56 133 1.0 6.0 0.00 0.00 0.00 56 1014.5
20260504020956 56 141 1.0 4.0 0.00 0.00 0.00 55 1014.5
20260504020456 56 142 1.0 3.0 0.00 0.00 0.00 55 1014.4
20260504015957 56 144 1.0 5.0 0.00 0.00 0.00 55 1014.3
20260504015456 56 156 1.0 5.0 0.00 0.00 0.00 54 1014.3
20260504014956 56 163 1.0 4.0 0.00 0.00 0.00 54 1014.3
20260504014456 56 150 1.0 2.0 0.00 0.00 0.00 55 1014.2
20260504014017 56 169 1.0 2.0 0.00 0.00 0.00 56 1014.2
20260504013456 56 186 1.0 3.0 0.00 0.00 0.00 57 1014.2
20260504012956 56 153 1.0 3.0 0.00 0.00 0.00 57 1014.3
20260504012457 56 141 0.0 3.0 0.00 0.00 0.00 56 1014.2
20260504011957 57 141 1.0 2.0 0.00 0.00 0.00 56 1014.1
20260504011517 57 141 1.0 5.0 0.00 0.00 0.00 54 1014.0
20260504010956 58 142 2.0 8.0 0.00 0.00 0.00 52 1014.1
20260504010456 58 154 2.0 8.0 0.00 0.00 0.00 48 1014.3
20260504005956 58 178 2.0 7.0 0.00 0.00 0.00 47 1014.2
20260504005518 58 167 2.0 5.0 0.00 0.00 0.00 47 1014.2
20260504004956 58 169 1.0 8.0 0.00 0.00 0.00 47 1014.2
20260504004456 58 173 1.0 8.0 0.00 0.00 0.00 46 1014.2
20260504004018 58 130 0.0 3.0 0.00 0.00 0.00 46 1014.2
20260504003456 59 135 1.0 4.0 0.00 0.00 0.00 46 1014.2
20260504002956 59 153 2.0 7.0 0.00 0.00 0.00 45 1014.1
20260504002456 59 183 2.0 7.0 0.00 0.00 0.00 44 1014.1
20260504001956 59 197 1.0 5.0 0.00 0.00 0.00 44 1014.3
20260504001456 59 198 1.0 5.0 0.00 0.00 0.00 45 1014.3
20260504001017 59 185 2.0 7.0 0.00 0.00 0.00 43 1014.3
20260504000457 59 174 2.0 7.0 0.00 0.00 0.00 44 1014.2
20260503235956 59 182 2.0 6.0 0.00 0.00 0.00 44 1014.0
20260503235456 59 193 1.0 6.0 0.00 0.00 0.00 45 1014.0
20260503235018 60 182 1.0 3.0 0.00 0.00 0.00 42 1014.0
20260503234456 60 161 1.0 4.0 0.00 0.00 0.00 41 1014.0
20260503233956 60 191 2.0 6.0 0.00 0.00 0.00 41 1014.1
20260503233456 60 172 3.0 8.0 0.00 0.00 0.00 41 1014.1
20260503232956 60 168 3.0 9.0 0.00 0.00 0.00 39 1014.0
20260503232456 60 161 2.0 9.0 0.00 0.00 0.00 40 1014.1
20260503231956 60 146 2.0 8.0 0.00 0.00 0.00 41 1014.2
20260503231518 60 159 2.0 8.0 0.00 0.00 0.00 41 1014.3
20260503230956 60 209 1.0 4.0 0.00 0.00 0.00 41 1014.5
20260503230517 60 212 1.0 4.0 0.00 0.00 0.00 42 1014.6
20260503230017 60 170 2.0 8.0 0.00 0.00 0.00 40 1014.7
20260503225456 60 165 3.0 8.0 0.00 0.00 0.00 41 1014.8
20260503224956 60 166 2.0 7.0 0.00 0.00 0.00 40 1014.9
20260503224456 60 157 1.0 4.0 0.00 0.00 0.00 40 1015.2
20260503223956 60 152 2.0 5.0 0.00 0.00 0.00 41 1015.2
20260503223456 61 150 3.0 10.0 0.00 0.00 0.00 40 1015.2
20260503222956 61 148 4.0 10.0 0.00 0.00 0.00 40 1015.3
20260503222456 61 180 3.0 9.0 0.00 0.00 0.00 40 1015.4
20260503222018 62 188 2.0 9.0 0.00 0.00 0.00 40 1015.4
20260503221517 62 195 2.0 7.0 0.00 0.00 0.00 41 1015.4
20260503220956 62 218 3.0 10.0 0.00 0.00 0.00 40 1015.5
20260503220457 62 183 3.0 11.0 0.00 0.00 0.00 38 1015.6
20260503215957 62 187 3.0 11.0 0.00 0.00 0.00 40 1015.8
20260503215456 63 188 3.0 11.0 0.00 0.00 0.00 38 1015.7
20260503214956 62 162 3.0 11.0 0.00 0.00 0.00 40 1015.9
20260503214457 62 166 3.0 8.0 0.00 0.00 0.00 39 1015.8
20260503213957 61 166 3.0 7.0 0.00 0.00 0.00 39 1015.9
20260503213456 61 174 3.0 8.0 0.00 0.00 0.00 39 1015.8
20260503212957 61 180 3.0 8.0 0.00 0.00 0.00 40 1015.8
20260503212518 62 164 2.0 5.0 0.00 0.00 0.00 41 1015.8
20260503211957 61 201 2.0 9.0 0.00 0.00 0.00 39 1015.8
20260503211456 61 226 2.0 9.0 0.00 0.00 0.00 40 1015.9
20260503210956 61 226 2.0 9.0 0.00 0.00 0.00 39 1016.1
20260503210457 61 212 2.0 9.0 0.00 0.00 0.00 39 1016.3
20260503205957 61 236 2.0 9.0 0.00 0.00 0.00 40 1016.4
20260503205457 60 254 3.0 9.0 0.00 0.00 0.00 40 1016.6
20260503204956 60 241 2.0 8.0 0.00 0.00 0.00 39 1016.6
20260503204457 60 240 2.0 8.0 0.00 0.00 0.00 40 1016.7
20260503203956 60 250 2.0 7.0 0.00 0.00 0.00 39 1016.7
20260503203456 61 202 3.0 8.0 0.00 0.00 0.00 38 1016.7
20260503202956 61 188 2.0 8.0 0.00 0.00 0.00 38 1016.6
20260503202456 61 191 3.0 8.0 0.00 0.00 0.00 39 1016.6
20260503201956 62 171 4.0 13.0 0.00 0.00 0.00 40 1016.5
20260503201518 62 174 4.0 13.0 0.00 0.00 0.00 40 1016.7
20260503200956 61 170 3.0 10.0 0.00 0.00 0.00 40 1016.7
20260503200456 61 209 3.0 10.0 0.00 0.00 0.00 39 1016.8
20260503200018 61 237 3.0 13.0 0.00 0.00 0.00 40 1016.8
20260503195457 61 209 4.0 13.0 0.00 0.00 0.00 38 1016.8
20260503195018 61 175 3.0 11.0 0.00 0.00 0.00 40 1017.0
20260503194457 60 155 3.0 8.0 0.00 0.00 0.00 40 1017.1
20260503193957 60 162 4.0 11.0 0.00 0.00 0.00 40 1017.1
20260503193456 61 181 3.0 11.0 0.00 0.00 0.00 38 1017.3
20260503192956 62 162 2.0 8.0 0.00 0.00 0.00 44 1017.5
20260503192456 61 159 2.0 8.0 0.00 0.00 0.00 42 1017.7
20260503192018 61 160 3.0 7.0 0.00 0.00 0.00 42 1017.8
20260503191456 61 181 3.0 7.0 0.00 0.00 0.00 39 1017.7
20260503190956 61 215 3.0 12.0 0.00 0.00 0.00 39 1018.0
20260503190456 61 185 4.0 13.0 0.00 0.00 0.00 41 1018.0
20260503190018 61 158 4.0 13.0 0.00 0.00 0.00 39 1018.0
20260503185456 61 153 4.0 11.0 0.00 0.00 0.00 40 1018.1
20260503185018 61 165 4.0 11.0 0.00 0.00 0.00 37 1018.2
20260503184517 60 203 3.0 10.0 0.00 0.00 0.00 38 1018.4
20260503183956 60 206 4.0 11.0 0.00 0.00 0.00 38 1018.4
20260503183457 60 182 3.0 11.0 0.00 0.00 0.00 40 1018.6
20260503182956 60 192 3.0 10.0 0.00 0.00 0.00 40 1018.7
20260503182456 60 190 3.0 8.0 0.00 0.00 0.00 41 1018.6
20260503182017 59 187 3.0 8.0 0.00 0.00 0.00 41 1018.6
20260503181456 60 211 3.0 11.0 0.00 0.00 0.00 40 1018.7
20260503180957 59 229 4.0 11.0 0.00 0.00 0.00 38 1018.7
20260503180457 60 209 4.0 11.0 0.00 0.00 0.00 38 1018.8
20260503175956 60 159 4.0 12.0 0.00 0.00 0.00 42 1018.9
20260503175456 60 150 5.0 12.0 0.00 0.00 0.00 39 1018.7
20260503174957 60 160 5.0 11.0 0.00 0.00 0.00 39 1018.9
20260503174457 60 168 4.0 11.0 0.00 0.00 0.00 39 1019.0
20260503174017 60 156 4.0 11.0 0.00 0.00 0.00 39 1019.1
20260503173456 60 153 3.0 9.0 0.00 0.00 0.00 40 1019.2
20260503172957 60 166 3.0 12.0 0.00 0.00 0.00 41 1019.3
20260503172456 60 170 3.0 12.0 0.00 0.00 0.00 39 1019.4
20260503171957 60 171 2.0 10.0 0.00 0.00 0.00 44 1019.5
20260503171456 60 185 2.0 7.0 0.00 0.00 0.00 42 1019.6
20260503170956 60 186 3.0 8.0 0.00 0.00 0.00 42 1019.8
20260503170518 60 199 3.0 12.0 0.00 0.00 0.00 40 1020.0